Fox Island, WA

9:49 AM PST on February 08, 2016 (GMT -0800)
Tacoma Narrows

Weather History for KTIW - March, 2014

Change the Weather History Date:

Saturday, March 15, 2014

  Actual Average Record
Temperature  
Mean Temperature 52 °F -  
Max Temperature 61 °F 49 °F 61 °F (2014)
Min Temperature 43 °F 39 °F 32 °F (2009)
Degree Days  
Heating Degree Days 13    
Growing Degree Days 2 (Base 50)    
Moisture  
Dew Point 43 °F    
Average Humidity 77    
Maximum Humidity 89    
Minimum Humidity 54    
Precipitation  
Precipitation 0.34 in - - ()
Sea Level Pressure  
Sea Level Pressure 30.25 in    
Wind  
Wind Speed 4 mph (SSW)    
Max Wind Speed 14 mph    
Max Gust Speed 23 mph    
Visibility 10 miles    
Events Rain    
Averages and records for this station are not official NWS values.
T = Trace of Precipitation, MM = Missing Value Source: NWS Daily Summary

Daily Weather History Graph

Daily Weather History Graph

Search for Another Location

Airport or City:

Trip Planner

Search our weather history database for the weather conditions in past years. The results will help you decide how hot, cold, wet, or windy it might be!

Date:

Astronomy

Mar. 15, 2014 Rise Set
Actual Time 7:23 AM PDT 7:16 PM PDT
Civil Twilight 6:52 AM PDT 7:46 PM PDT
Nautical Twilight 6:17 AM PDT 8:22 PM PDT
Astronomical Twilight 5:40 AM PDT 8:58 PM PDT
Moon 6:40 PM PDT (3/15) 6:39 AM PDT (3/15)
Length of Visible Light 12h 54m
Length of Day
11h 53m
Waxing Gibbous, 99% of the Moon is Illuminated
Mar 15
Waxing Gibbous
Mar 16
Full
Mar 23
Last Quarter
Mar 30
New
Apr 7
First Quarter

Hourly Weather History & Observations

Time (PDT) Temp. Windchill Dew Point Humidity Pressure Visibility Wind Dir Wind Speed Gust Speed Precip Events Conditions
12:53 AM 44.1 °F - 39.0 °F 82% 30.34 in 10.0 mi Calm Calm - N/A   Clear
1:53 AM 44.1 °F - 39.0 °F 82% 30.33 in 10.0 mi Calm Calm - N/A   Clear
2:53 AM 43.0 °F - 37.9 °F 82% 30.32 in 10.0 mi Calm Calm - N/A   Clear
3:53 AM 45.0 °F 43.5 °F 37.9 °F 76% 30.29 in 10.0 mi Variable 3.5 mph - N/A   Overcast
4:53 AM 45.0 °F - 36.0 °F 71% 30.28 in 10.0 mi Calm Calm - N/A   Clear
5:53 AM 44.1 °F - 37.0 °F 76% 30.27 in 10.0 mi Calm Calm - N/A   Mostly Cloudy
6:53 AM 43.0 °F - 39.0 °F 86% 30.27 in 10.0 mi Calm Calm - N/A   Overcast
7:53 AM 43.0 °F 41.3 °F 39.0 °F 86% 30.28 in 10.0 mi SSW 3.5 mph - N/A   Overcast
8:53 AM 44.1 °F 42.5 °F 39.9 °F 85% 30.28 in 10.0 mi South 3.5 mph - N/A   Overcast
9:53 AM 45.0 °F 41.8 °F 41.0 °F 86% 30.29 in 10.0 mi SSE 5.8 mph - 0.01 in   Overcast
10:53 AM 46.9 °F - 39.9 °F 77% 30.28 in 10.0 mi South 3.5 mph - 0.00 in Rain Light Rain
11:53 AM 46.9 °F - 39.0 °F 74% 30.28 in 10.0 mi Calm Calm - 0.00 in   Overcast
12:53 PM 48.9 °F - 42.1 °F 77% 30.27 in 10.0 mi Calm Calm - N/A   Overcast
1:53 PM 54.0 °F - 43.0 °F 66% 30.24 in 10.0 mi South 10.4 mph - N/A   Overcast
2:53 PM 61.0 °F - 44.1 °F 54% 30.21 in 10.0 mi SSW 13.8 mph - N/A   Mostly Cloudy
3:53 PM 59.0 °F - 45.0 °F 60% 30.21 in 10.0 mi SSW 9.2 mph - N/A   Overcast
4:53 PM 59.0 °F - 46.0 °F 62% 30.21 in 10.0 mi SW 9.2 mph 20.7 mph N/A   Overcast
5:53 PM 57.9 °F - 46.9 °F 67% 30.20 in 10.0 mi SW 10.4 mph - N/A   Overcast
6:53 PM 57.0 °F - 46.9 °F 69% 30.22 in 10.0 mi SW 6.9 mph - 0.00 in Rain Light Rain
7:03 PM 55.9 °F - 46.9 °F 72% 30.21 in 9.0 mi SW 8.1 mph - 0.01 in Rain Light Rain
7:17 PM 55.0 °F - 48.0 °F 77% 30.21 in 4.0 mi SSW 10.4 mph 23.0 mph 0.04 in Rain Rain
7:53 PM 54.0 °F - 48.9 °F 83% 30.21 in 8.0 mi SSW 8.1 mph - 0.10 in Rain Light Rain
8:00 PM 54.0 °F - 48.9 °F 83% 30.20 in 10.0 mi South 8.1 mph - 0.01 in Rain Light Rain
8:53 PM 53.1 °F - 48.9 °F 86% 30.22 in 8.0 mi SSW 8.1 mph - 0.10 in Rain Light Rain
9:53 PM 52.0 °F - 48.9 °F 89% 30.22 in 10.0 mi SSW 11.5 mph - 0.07 in Rain Light Rain
10:53 PM 51.1 °F - 48.0 °F 89% 30.23 in 8.0 mi SSW 6.9 mph - 0.05 in Rain Light Rain
11:53 PM 51.1 °F - 48.0 °F 89% 30.22 in 10.0 mi South 13.8 mph 20.7 mph 0.01 in   Overcast